{"data":{"norad_id":68456,"intl_designator":"2026-067AS","name":"PARUS-6U1","alt_names":[],"object_type":"PAYLOAD","status":"ACTIVE","operator":null,"country":"ROC","launch_date":"2026-03-30","launch_site_code":"AFWTR","launch_vehicle":null,"mission":null,"orbit_class":"UNKNOWN","rcs_meters":null,"size_class":null,"mass_kg":null,"dimensions":null,"purposes":[],"wikipedia_slug":null,"has_3d_model":false,"image_url":null,"decayed_at":null,"tle_current":{"epoch":"2026-05-24T20:15:16.322688Z","epoch_age_seconds":99021,"freshness":"FRESH","line1":"1 68456U 26067AS  26144.84393892  .00005035  00000+0  25635-3 0  9999","line2":"2 68456  97.4538 103.5736 0006989 131.8282 228.3550 15.17230320  8398","mean_motion":15.1723032,"eccentricity":0.0006989,"inclination_deg":97.4538,"raan_deg":103.5736,"arg_perigee_deg":131.8282,"mean_anomaly_deg":228.355,"bstar":0.00025635,"rev_number":839,"period_min":94.909782715125,"perigee_km":509.39872985192,"apogee_km":519.03286058908,"semimajor_km":6892.3527952205,"source":"CELESTRAK","updated_at":"2026-05-25T13:38:07.844075Z"}}}